Starlink 11142

operational
NORAD ID: 59957 Int'l Des: 2024-107 Owner: SPXS Country: US Constellation: starlink
LEOCIRCULAR

Über Starlink 11142

Beschreibung wird geladen...

Live-Position

3D-Globus wird geladen...

Nächste Überflüge

Höhenverlauf

Altitude vs Time

uPlot chart will show altitude changes over time

Zweizeiliger Elementsatz

1 59957U 24107N 26093.47899316 -.00005426 00000-0 -39964-4 0 9990
2 59957 53.1568 128.7483 0001489 48.9303 311.1843 15.69701723106051
Epoch: 3. Apr. 2026 • Age: 18 hours

Aktueller Status

Höhe 359.9 km
Geschwindigkeit 7.69 km/s
Subsatellitenpunkt 0.97°N, 154.43°W
Startdatum 5. Juni 2024
Alter 1.8 years
Typ internet

Technische Details

Klassifizierung Payload
Masse 960.00 kg
Trockenmasse 910.00 kg
Gesamtmasse 960.00 kg
Länge 0.30 m
Durchmesser 4.10 m
Spannweite 29.00 m
Form Box + pan
Hersteller SPXS
Bus-Typ Starlink V2MD
Phasenstatus In Orbit
Besitzer/Staat SPXS/US

Große Konstellationen

Loading constellations...